Location: Apollinopolis Magna
(24.9792°N, 32.8772°E)
Time: 05:34:04
(UTC+00:00)

GPS 2-14 Rocket1 - Pass Details

Date: 02 March 2021
Orbit: 475 x 538 km, 20.7° (Epoch: 12 April)

Event Time Altitude Azimuth Distance (km) Brightness Sun altitude
Rises 16:37:17 0° 254° (WSW) 2,543 8.0 -11.2°
Reaches altitude 10° 16:39:35 10° 246° (WSW) 1,653 6.5 -11.7°
Maximum altitude 16:43:11 40° 176° (S) 709 3.3 -12.6°
Enters shadow 16:45:28 19° 115° (ESE) 1,179 4.0 -13.1°
